Starlink 6155

operational
NORAD ID: 57076 Int'l Des: 2023-088 Owner: SPXS Country: US Constellation: starlink
LEOCIRCULAR

Über Starlink 6155

Beschreibung wird geladen...

Live-Position

3D-Globus wird geladen...

Nächste Überflüge

Höhenverlauf

Altitude vs Time

uPlot chart will show altitude changes over time

Zweizeiliger Elementsatz

1 57076U 23088AE 25308.04178709 -.00000280 00000-0 -56725-5 0 9992
2 57076 43.0032 57.6628 0001323 266.5344 93.5347 15.02535411131443
Epoch: 4. Nov. 2025 • Age: 9 hours

Aktueller Status

Höhe 561.8 km
Geschwindigkeit 7.59 km/s
Subsatellitenpunkt 37.07°N, 4.37°W
Startdatum 22. Juni 2023
Alter 2.3 years
Typ internet

Technische Details

Klassifizierung Payload
Masse 305.00 kg
Trockenmasse 290.00 kg
Gesamtmasse 305.00 kg
Länge 0.20 m
Durchmesser 2.80 m
Spannweite 9.00 m
Form Box + pan
Hersteller SPXS
Bus-Typ Starlink
Phasenstatus In Orbit
Besitzer/Staat SPXS/US

Große Konstellationen

Loading constellations...